Time,TemperatureF,DewpointF,PressureIn,WindDirection,WindDirectionDegrees,WindSpeedMPH,WindSpeedGustMPH,Humidity,HourlyPrecipIn,Conditions,Clouds,dailyrainin,SolarRadiationWatts/m^2,SoftwareType,DateUTC
2013-02-18 00:00:00,62.0,54.3,29.90,SSE,167,14.0,14.0,76,0.00,,,0.00,0,Wunderground v.1.15,2013-02-18 06:00:00,
2013-02-18 00:05:00,62.0,54.3,29.90,SE,133,12.0,14.0,76,0.00,,,0.00,0,Wunderground v.1.15,2013-02-18 06:05:00,
2013-02-18 00:10:00,61.9,54.2,29.90,South,173,11.0,11.0,76,0.00,,,0.00,0,Wunderground v.1.15,2013-02-18 06:10:00,
2013-02-18 00:20:00,61.6,54.3,29.89,SSE,165,11.0,18.0,77,0.00,,,0.00,0,Wunderground v.1.15,2013-02-18 06:20:00,
2013-02-18 00:25:00,61.5,54.6,29.89,SSE,153,12.0,18.0,78,0.00,,,0.00,0,Wunderground v.1.15,2013-02-18 06:25:00,
2013-02-18 00:30:00,61.5,54.6,29.88,SSE,155,12.0,12.0,78,0.00,,,0.00,0,Wunderground v.1.15,2013-02-18 06:30:00,
2013-02-18 00:35:00,61.4,54.5,29.88,SSE,154,12.0,17.0,78,0.00,,,0.00,0,Wunderground v.1.15,2013-02-18 06:35:00,
2013-02-18 00:40:00,61.4,54.5,29.88,SSE,151,12.0,13.0,78,0.00,,,0.00,0,Wunderground v.1.15,2013-02-18 06:40:00,
2013-02-18 00:45:00,61.3,54.4,29.88,SSE,168,11.0,13.0,78,0.00,,,0.00,0,Wunderground v.1.15,2013-02-18 06:45:00,
2013-02-18 00:55:00,61.2,54.6,29.88,South,180,11.0,11.0,79,0.00,,,0.00,0,Wunderground v.1.15,2013-02-18 06:55:00,
2013-02-18 01:00:00,61.2,54.6,29.88,SSE,154,11.0,11.0,79,0.00,,,0.00,0,Wunderground v.1.15,2013-02-18 07:00:00,
2013-02-18 01:05:00,61.2,54.6,29.88,SSE,158,11.0,12.0,79,0.00,,,0.00,0,Wunderground v.1.15,2013-02-18 07:05:00,
2013-02-18 01:10:00,61.2,54.6,29.88,SSE,159,10.0,11.0,79,0.00,,,0.00,0,Wunderground v.1.15,2013-02-18 07:10:00,
2013-02-18 01:20:00,61.2,55.0,29.87,SE,128,10.0,13.0,80,0.00,,,0.00,0,Wunderground v.1.15,2013-02-18 07:20:00,
2013-02-18 01:25:00,61.2,55.0,29.87,South,176,11.0,13.0,80,0.00,,,0.00,0,Wunderground v.1.15,2013-02-18 07:25:00,
2013-02-18 01:30:00,61.3,55.1,29.86,South,179,12.0,14.0,80,0.00,,,0.00,0,Wunderground v.1.15,2013-02-18 07:30:00,
2013-02-18 01:35:00,61.3,55.1,29.86,SSE,161,11.0,14.0,80,0.00,,,0.00,0,Wunderground v.1.15,2013-02-18 07:35:00,
2013-02-18 01:40:00,61.3,55.1,29.86,South,172,11.0,14.0,80,0.00,,,0.00,0,Wunderground v.1.15,2013-02-18 07:40:00,
2013-02-18 01:50:00,61.4,55.2,29.86,South,187,11.0,13.0,80,0.00,,,0.00,0,Wunderground v.1.15,2013-02-18 07:50:00,
2013-02-18 01:55:00,61.4,55.2,29.86,SSE,160,10.0,13.0,80,0.00,,,0.00,0,Wunderground v.1.15,2013-02-18 07:55:00,
2013-02-18 02:00:00,61.4,55.2,29.85,SSE,168,10.0,11.0,80,0.00,,,0.00,0,Wunderground v.1.15,2013-02-18 08:00:00,
2013-02-18 02:05:00,61.5,55.3,29.85,South,169,10.0,14.0,80,0.00,,,0.00,0,Wunderground v.1.15,2013-02-18 08:05:00,
2013-02-18 02:15:00,61.6,55.4,29.85,South,174,9.0,10.0,80,0.00,,,0.00,0,Wunderground v.1.15,2013-02-18 08:15:00,
2013-02-18 02:20:00,61.6,55.7,29.85,South,171,9.0,13.0,81,0.00,,,0.00,0,Wunderground v.1.15,2013-02-18 08:20:00,
2013-02-18 02:25:00,61.7,55.8,29.85,SSE,156,11.0,13.0,81,0.00,,,0.00,0,Wunderground v.1.15,2013-02-18 08:25:00,
2013-02-18 02:30:00,61.8,55.9,29.85,SSE,163,11.0,12.0,81,0.00,,,0.00,0,Wunderground v.1.15,2013-02-18 08:30:00,
2013-02-18 02:35:00,61.8,55.9,29.85,South,185,11.0,17.0,81,0.00,,,0.00,0,Wunderground v.1.15,2013-02-18 08:35:00,
2013-02-18 02:40:00,61.9,56.0,29.85,SSE,159,13.0,14.0,81,0.00,,,0.00,0,Wunderground v.1.15,2013-02-18 08:40:00,
2013-02-18 02:45:00,62.0,56.1,29.84,South,170,13.0,14.0,81,0.00,,,0.00,0,Wunderground v.1.15,2013-02-18 08:45:00,
2013-02-18 02:55:00,62.0,56.1,29.84,SSE,157,10.0,12.0,81,0.00,,,0.00,0,Wunderground v.1.15,2013-02-18 08:55:00,
2013-02-18 03:05:00,62.1,56.2,29.83,SSE,162,10.0,11.0,81,0.00,,,0.00,0,Wunderground v.1.15,2013-02-18 09:05:00,
2013-02-18 03:15:00,62.1,56.2,29.83,South,169,11.0,13.0,81,0.00,,,0.00,0,Wunderground v.1.15,2013-02-18 09:15:00,
2013-02-18 03:20:00,62.1,56.2,29.83,South,176,10.0,12.0,81,0.00,,,0.00,0,Wunderground v.1.15,2013-02-18 09:20:00,
2013-02-18 03:25:00,62.1,56.2,29.83,South,184,10.0,15.0,81,0.00,,,0.00,0,Wunderground v.1.15,2013-02-18 09:25:00,
2013-02-18 03:30:00,62.1,56.2,29.83,South,176,11.0,11.0,81,0.00,,,0.00,0,Wunderground v.1.15,2013-02-18 09:30:00,
2013-02-18 03:40:00,62.1,56.5,29.83,South,173,11.0,12.0,82,0.00,,,0.00,0,Wunderground v.1.15,2013-02-18 09:40:00,
2013-02-18 03:45:00,62.1,56.5,29.83,South,182,11.0,12.0,82,0.00,,,0.00,0,Wunderground v.1.15,2013-02-18 09:45:00,
2013-02-18 03:50:00,62.0,56.4,29.83,South,190,12.0,12.0,82,0.00,,,0.00,0,Wunderground v.1.15,2013-02-18 09:50:00,
2013-02-18 03:55:00,62.0,56.4,29.83,SSE,147,10.0,12.0,82,0.00,,,0.00,0,Wunderground v.1.15,2013-02-18 09:55:00,
2013-02-18 04:00:00,62.0,56.4,29.83,South,182,9.0,9.0,82,0.00,,,0.00,0,Wunderground v.1.15,2013-02-18 10:00:00,
2013-02-18 04:05:00,62.0,56.4,29.83,South,172,10.0,10.0,82,0.00,,,0.00,0,Wunderground v.1.15,2013-02-18 10:05:00,
2013-02-18 04:10:00,61.9,56.3,29.83,South,169,10.0,12.0,82,0.00,,,0.00,0,Wunderground v.1.15,2013-02-18 10:10:00,
2013-02-18 04:15:00,61.9,56.3,29.83,SSE,168,10.0,12.0,82,0.00,,,0.00,0,Wunderground v.1.15,2013-02-18 10:15:00,
2013-02-18 04:20:00,61.9,56.3,29.83,South,172,8.0,8.0,82,0.00,,,0.00,0,Wunderground v.1.15,2013-02-18 10:20:00,
2013-02-18 04:25:00,61.9,56.7,29.83,South,171,8.0,16.0,83,0.00,,,0.00,0,Wunderground v.1.15,2013-02-18 10:25:00,
2013-02-18 04:35:00,61.9,56.7,29.83,SE,146,8.0,9.0,83,0.00,,,0.00,0,Wunderground v.1.15,2013-02-18 10:35:00,
2013-02-18 04:40:00,61.8,56.6,29.83,SSE,153,9.0,10.0,83,0.00,,,0.00,0,Wunderground v.1.15,2013-02-18 10:40:00,
2013-02-18 04:45:00,61.8,56.6,29.83,SSE,163,9.0,10.0,83,0.00,,,0.00,0,Wunderground v.1.15,2013-02-18 10:45:00,
2013-02-18 04:55:00,61.9,56.7,29.83,South,178,9.0,9.0,83,0.00,,,0.00,0,Wunderground v.1.15,2013-02-18 10:55:00,
2013-02-18 05:05:00,61.9,56.7,29.82,SSE,165,8.0,10.0,83,0.00,,,0.00,0,Wunderground v.1.15,2013-02-18 11:05:00,
2013-02-18 05:10:00,61.9,56.7,29.82,South,171,8.0,8.0,83,0.00,,,0.00,0,Wunderground v.1.15,2013-02-18 11:10:00,
2013-02-18 05:15:00,61.9,56.7,29.83,SSE,168,7.0,12.0,83,0.00,,,0.00,0,Wunderground v.1.15,2013-02-18 11:15:00,
2013-02-18 05:20:00,61.9,56.7,29.83,SSE,157,8.0,9.0,83,0.00,,,0.00,0,Wunderground v.1.15,2013-02-18 11:20:00,
2013-02-18 05:25:00,62.0,56.8,29.83,South,178,8.0,9.0,83,0.00,,,0.00,0,Wunderground v.1.15,2013-02-18 11:25:00,
2013-02-18 05:30:00,61.9,57.0,29.83,SSE,159,7.0,10.0,84,0.00,,,0.00,0,Wunderground v.1.15,2013-02-18 11:30:00,
2013-02-18 05:40:00,61.9,57.0,29.83,SSE,155,7.0,9.0,84,0.00,,,0.00,0,Wunderground v.1.15,2013-02-18 11:40:00,
2013-02-18 05:45:00,61.9,57.0,29.82,SSE,167,8.0,13.0,84,0.00,,,0.00,0,Wunderground v.1.15,2013-02-18 11:45:00,
2013-02-18 05:50:00,61.9,57.0,29.82,SSE,158,8.0,9.0,84,0.00,,,0.00,0,Wunderground v.1.15,2013-02-18 11:50:00,
2013-02-18 05:55:00,62.0,57.1,29.82,SSE,161,8.0,9.0,84,0.00,,,0.00,0,Wunderground v.1.15,2013-02-18 11:55:00,
2013-02-18 06:00:00,62.0,57.1,29.82,SSE,165,7.0,8.0,84,0.00,,,0.00,0,Wunderground v.1.15,2013-02-18 12:00:00,
2013-02-18 06:05:00,61.9,57.0,29.82,South,170,7.0,12.0,84,0.00,,,0.00,0,Wunderground v.1.15,2013-02-18 12:05:00,
2013-02-18 06:10:00,62.0,57.4,29.82,South,173,8.0,10.0,85,0.00,,,0.00,0,Wunderground v.1.15,2013-02-18 12:10:00,
2013-02-18 06:15:00,62.0,57.4,29.82,South,175,8.0,10.0,85,0.00,,,0.00,0,Wunderground v.1.15,2013-02-18 12:15:00,
2013-02-18 06:20:00,62.0,57.4,29.82,SE,144,8.0,8.0,85,0.00,,,0.00,0,Wunderground v.1.15,2013-02-18 12:20:00,
2013-02-18 06:30:00,62.0,57.4,29.82,South,169,7.0,7.0,85,0.00,,,0.00,0,Wunderground v.1.15,2013-02-18 12:30:00,
2013-02-18 06:35:00,62.0,57.4,29.82,SSE,165,6.0,7.0,85,0.00,,,0.00,0,Wunderground v.1.15,2013-02-18 12:35:00,
2013-02-18 06:40:00,62.0,57.4,29.82,SSE,161,6.0,6.0,85,0.00,,,0.00,0,Wunderground v.1.15,2013-02-18 12:40:00,
2013-02-18 06:50:00,62.0,57.8,29.82,South,169,7.0,7.0,86,0.00,,,0.00,0,Wunderground v.1.15,2013-02-18 12:50:00,
2013-02-18 06:55:00,62.0,57.8,29.82,SSE,167,7.0,10.0,86,0.00,,,0.00,0,Wunderground v.1.15,2013-02-18 12:55:00,
2013-02-18 07:00:00,62.1,57.9,29.82,SSE,163,7.0,7.0,86,0.00,,,0.00,0,Wunderground v.1.15,2013-02-18 13:00:00,
2013-02-18 07:05:00,62.1,57.9,29.82,SSE,163,6.0,7.0,86,0.00,,,0.00,0,Wunderground v.1.15,2013-02-18 13:05:00,
2013-02-18 07:15:00,62.1,57.9,29.82,SSE,157,6.0,7.0,86,0.00,,,0.00,0,Wunderground v.1.15,2013-02-18 13:15:00,
2013-02-18 07:20:00,62.1,58.2,29.82,SSE,159,5.0,5.0,87,0.00,,,0.00,0,Wunderground v.1.15,2013-02-18 13:20:00,
2013-02-18 07:25:00,62.2,58.3,29.82,SSE,168,6.0,6.0,87,0.00,,,0.00,0,Wunderground v.1.15,2013-02-18 13:25:00,
2013-02-18 07:30:00,62.2,58.3,29.82,SSE,155,7.0,7.0,87,0.00,,,0.00,5,Wunderground v.1.15,2013-02-18 13:30:00,
2013-02-18 07:35:00,62.2,58.3,29.82,South,178,8.0,9.0,87,0.00,,,0.00,7,Wunderground v.1.15,2013-02-18 13:35:00,
2013-02-18 07:45:00,62.4,58.5,29.82,SE,145,8.0,10.0,87,0.00,,,0.00,11,Wunderground v.1.15,2013-02-18 13:45:00,
2013-02-18 07:50:00,62.4,58.5,29.82,SSE,161,8.0,8.0,87,0.00,,,0.00,14,Wunderground v.1.15,2013-02-18 13:50:00,
2013-02-18 07:55:00,62.4,58.8,29.82,SSE,150,7.0,14.0,88,0.00,,,0.00,23,Wunderground v.1.15,2013-02-18 13:55:00,
2013-02-18 08:00:00,62.5,58.9,29.83,SSE,168,8.0,8.0,88,0.00,,,0.00,19,Wunderground v.1.15,2013-02-18 14:00:00,
2013-02-18 08:05:00,62.5,58.9,29.83,South,171,10.0,10.0,88,0.00,,,0.00,21,Wunderground v.1.15,2013-02-18 14:05:00,
2013-02-18 08:10:00,62.5,58.9,29.83,SSE,161,9.0,9.0,88,0.00,,,0.00,37,Wunderground v.1.15,2013-02-18 14:10:00,
2013-02-18 08:15:00,62.6,59.0,29.83,SSE,165,8.0,9.0,88,0.00,,,0.00,37,Wunderground v.1.15,2013-02-18 14:15:00,
2013-02-18 08:20:00,62.6,59.0,29.83,South,176,9.0,10.0,88,0.00,,,0.00,58,Wunderground v.1.15,2013-02-18 14:20:00,
2013-02-18 08:25:00,62.7,59.1,29.83,SSW,194,9.0,10.0,88,0.00,,,0.00,51,Wunderground v.1.15,2013-02-18 14:25:00,
2013-02-18 08:30:00,62.8,59.2,29.84,SSE,161,8.0,10.0,88,0.00,,,0.00,51,Wunderground v.1.15,2013-02-18 14:30:00,
2013-02-18 08:35:00,62.9,59.3,29.84,South,180,8.0,10.0,88,0.00,,,0.00,56,Wunderground v.1.15,2013-02-18 14:35:00,
2013-02-18 08:40:00,63.0,59.4,29.84,South,188,7.0,7.0,88,0.00,,,0.00,76,Wunderground v.1.15,2013-02-18 14:40:00,
2013-02-18 08:45:00,63.1,59.5,29.85,South,183,8.0,11.0,88,0.00,,,0.00,70,Wunderground v.1.15,2013-02-18 14:45:00,
2013-02-18 08:50:00,63.2,59.6,29.85,SSE,152,8.0,8.0,88,0.00,,,0.00,54,Wunderground v.1.15,2013-02-18 14:50:00,
2013-02-18 08:55:00,63.2,59.6,29.85,SSE,165,7.0,8.0,88,0.00,,,0.00,53,Wunderground v.1.15,2013-02-18 14:55:00,
2013-02-18 09:00:00,63.3,59.7,29.85,South,174,7.0,7.0,88,0.00,,,0.00,84,Wunderground v.1.15,2013-02-18 15:00:00,
2013-02-18 09:05:00,63.4,59.8,29.85,South,180,8.0,12.0,88,0.00,,,0.00,84,Wunderground v.1.15,2013-02-18 15:05:00,
2013-02-18 09:15:00,63.7,60.1,29.86,South,172,10.0,10.0,88,0.00,,,0.00,81,Wunderground v.1.15,2013-02-18 15:15:00,
2013-02-18 09:20:00,63.8,59.9,29.86,South,182,9.0,11.0,87,0.00,,,0.00,88,Wunderground v.1.15,2013-02-18 15:20:00,
2013-02-18 09:25:00,63.9,60.0,29.86,South,169,10.0,11.0,87,0.00,,,0.00,70,Wunderground v.1.15,2013-02-18 15:25:00,
2013-02-18 09:30:00,64.0,60.1,29.87,South,183,9.0,9.0,87,0.00,,,0.00,77,Wunderground v.1.15,2013-02-18 15:30:00,
2013-02-18 09:35:00,64.0,60.1,29.87,South,178,8.0,9.0,87,0.00,,,0.00,90,Wunderground v.1.15,2013-02-18 15:35:00,
2013-02-18 09:40:00,64.1,60.2,29.87,South,171,8.0,9.0,87,0.00,,,0.00,120,Wunderground v.1.15,2013-02-18 15:40:00,
2013-02-18 09:45:00,64.3,60.3,29.87,South,174,7.0,9.0,87,0.00,,,0.00,134,Wunderground v.1.15,2013-02-18 15:45:00,
2013-02-18 09:55:00,65.0,60.7,29.87,South,190,6.0,7.0,86,0.00,,,0.00,153,Wunderground v.1.15,2013-02-18 15:55:00,
2013-02-18 10:00:00,65.2,60.6,29.88,SSW,195,7.0,7.0,85,0.00,,,0.00,248,Wunderground v.1.15,2013-02-18 16:00:00,
2013-02-18 10:05:00,66.0,61.4,29.88,South,174,8.0,9.0,85,0.00,,,0.00,128,Wunderground v.1.15,2013-02-18 16:05:00,
2013-02-18 10:10:00,66.3,61.0,29.88,South,180,8.0,10.0,83,0.00,,,0.00,183,Wunderground v.1.15,2013-02-18 16:10:00,
2013-02-18 10:15:00,66.5,61.2,29.88,South,182,9.0,10.0,83,0.00,,,0.00,244,Wunderground v.1.15,2013-02-18 16:15:00,
2013-02-18 10:20:00,66.8,61.5,29.88,SSW,205,8.0,10.0,83,0.00,,,0.00,192,Wunderground v.1.15,2013-02-18 16:20:00,
2013-02-18 10:25:00,66.8,61.1,29.88,South,190,8.0,10.0,82,0.00,,,0.00,155,Wunderground v.1.15,2013-02-18 16:25:00,
2013-02-18 10:30:00,67.1,61.4,29.88,SSW,200,8.0,8.0,82,0.00,,,0.00,190,Wunderground v.1.15,2013-02-18 16:30:00,
2013-02-18 10:35:00,67.4,61.4,29.88,South,188,8.0,13.0,81,0.00,,,0.00,120,Wunderground v.1.15,2013-02-18 16:35:00,
2013-02-18 10:40:00,67.4,61.4,29.88,SSE,168,10.0,10.0,81,0.00,,,0.00,241,Wunderground v.1.15,2013-02-18 16:40:00,
2013-02-18 10:45:00,67.9,61.9,29.88,South,181,10.0,10.0,81,0.00,,,0.00,276,Wunderground v.1.15,2013-02-18 16:45:00,
2013-02-18 10:50:00,68.5,62.1,29.88,SSW,193,9.0,9.0,80,0.00,,,0.00,332,Wunderground v.1.15,2013-02-18 16:50:00,
2013-02-18 11:00:00,69.7,62.5,29.88,South,188,10.0,11.0,78,0.00,,,0.00,492,Wunderground v.1.15,2013-02-18 17:00:00,
2013-02-18 11:05:00,70.1,62.2,29.88,SW,229,9.0,11.0,76,0.00,,,0.00,348,Wunderground v.1.15,2013-02-18 17:05:00,
2013-02-18 11:15:00,70.4,62.1,29.88,SSW,194,11.0,11.0,75,0.00,,,0.00,617,Wunderground v.1.15,2013-02-18 17:15:00,
2013-02-18 11:20:00,71.1,62.4,29.88,SSW,193,13.0,18.0,74,0.00,,,0.00,415,Wunderground v.1.15,2013-02-18 17:20:00,
2013-02-18 11:25:00,72.6,63.1,29.88,SSW,194,14.0,18.0,72,0.00,,,0.00,956,Wunderground v.1.15,2013-02-18 17:25:00,
2013-02-18 11:30:00,72.9,62.5,29.88,SSW,205,13.0,13.0,70,0.00,,,0.00,401,Wunderground v.1.15,2013-02-18 17:30:00,
2013-02-18 11:35:00,73.0,62.2,29.88,South,190,12.0,13.0,69,0.00,,,0.00,308,Wunderground v.1.15,2013-02-18 17:35:00,
2013-02-18 11:45:00,72.0,62.1,29.87,SSW,209,10.0,11.0,71,0.00,,,0.00,795,Wunderground v.1.15,2013-02-18 17:45:00,
2013-02-18 11:50:00,73.5,62.7,29.87,SSW,209,11.0,11.0,69,0.00,,,0.00,823,Wunderground v.1.15,2013-02-18 17:50:00,
2013-02-18 11:55:00,74.4,63.1,29.87,SW,222,11.0,12.0,68,0.00,,,0.00,942,Wunderground v.1.15,2013-02-18 17:55:00,
2013-02-18 12:00:00,74.8,62.2,29.86,SSW,208,12.0,12.0,65,0.00,,,0.00,962,Wunderground v.1.15,2013-02-18 18:00:00,
2013-02-18 12:05:00,74.2,62.1,29.86,SW,221,12.0,17.0,66,0.00,,,0.00,357,Wunderground v.1.15,2013-02-18 18:05:00,
2013-02-18 12:10:00,74.5,61.5,29.86,SW,215,11.0,11.0,64,0.00,,,0.00,221,Wunderground v.1.15,2013-02-18 18:10:00,
2013-02-18 12:15:00,74.1,62.4,29.84,SSW,211,12.0,12.0,67,0.00,,,0.00,858,Wunderground v.1.15,2013-02-18 18:15:00,
2013-02-18 12:20:00,74.7,62.6,29.84,SSW,207,12.0,17.0,66,0.00,,,0.00,863,Wunderground v.1.15,2013-02-18 18:20:00,
2013-02-18 12:25:00,74.8,61.8,29.84,SSW,209,11.0,17.0,64,0.00,,,0.00,765,Wunderground v.1.15,2013-02-18 18:25:00,
2013-02-18 12:35:00,73.1,61.1,29.83,SW,236,8.0,9.0,66,0.00,,,0.00,199,Wunderground v.1.15,2013-02-18 18:35:00,
2013-02-18 12:45:00,75.1,61.6,29.83,SSW,213,10.0,13.0,63,0.00,,,0.00,923,Wunderground v.1.15,2013-02-18 18:45:00,
2013-02-18 12:50:00,76.0,62.0,29.83,SW,234,8.0,11.0,62,0.00,,,0.00,737,Wunderground v.1.15,2013-02-18 18:50:00,
2013-02-18 12:55:00,76.3,60.9,29.83,WSW,238,7.0,13.0,59,0.00,,,0.00,856,Wunderground v.1.15,2013-02-18 18:55:00,
2013-02-18 13:00:00,77.1,60.7,29.82,SW,216,9.0,9.0,57,0.00,,,0.00,800,Wunderground v.1.15,2013-02-18 19:00:00,
2013-02-18 13:10:00,76.9,61.0,29.82,SW,214,10.0,10.0,58,0.00,,,0.00,763,Wunderground v.1.15,2013-02-18 19:10:00,
2013-02-18 13:15:00,77.2,59.8,29.81,SSW,198,9.0,10.0,55,0.00,,,0.00,763,Wunderground v.1.15,2013-02-18 19:15:00,
2013-02-18 13:20:00,77.0,60.1,29.81,South,191,9.0,11.0,56,0.00,,,0.00,779,Wunderground v.1.15,2013-02-18 19:20:00,
2013-02-18 13:25:00,77.2,59.8,29.81,WSW,250,10.0,11.0,55,0.00,,,0.00,766,Wunderground v.1.15,2013-02-18 19:25:00,
2013-02-18 13:35:00,78.7,60.1,29.80,SSW,204,7.0,11.0,53,0.00,,,0.00,737,Wunderground v.1.15,2013-02-18 19:35:00,
2013-02-18 13:45:00,77.7,59.2,29.80,SW,214,11.0,12.0,53,0.00,,,0.00,737,Wunderground v.1.15,2013-02-18 19:45:00,
2013-02-18 13:50:00,77.6,58.6,29.80,WSW,251,8.0,8.0,52,0.00,,,0.00,731,Wunderground v.1.15,2013-02-18 19:50:00,
2013-02-18 13:55:00,78.6,59.5,29.80,SW,223,7.0,13.0,52,0.00,,,0.00,738,Wunderground v.1.15,2013-02-18 19:55:00,
2013-02-18 14:00:00,78.7,57.9,29.79,West,266,6.0,7.0,49,0.00,,,0.00,708,Wunderground v.1.15,2013-02-18 20:00:00,
2013-02-18 14:05:00,78.6,59.0,29.79,SSW,205,5.0,7.0,51,0.00,,,0.00,744,Wunderground v.1.15,2013-02-18 20:05:00,
2013-02-18 14:10:00,78.7,58.5,29.79,WSW,241,6.0,7.0,50,0.00,,,0.00,703,Wunderground v.1.15,2013-02-18 20:10:00,
2013-02-18 14:20:00,79.0,58.2,29.78,SW,226,9.0,9.0,49,0.00,,,0.00,670,Wunderground v.1.15,2013-02-18 20:20:00,
2013-02-18 14:25:00,79.6,58.2,29.78,WSW,244,8.0,11.0,48,0.00,,,0.00,675,Wunderground v.1.15,2013-02-18 20:25:00,
2013-02-18 14:35:00,79.8,57.2,29.77,WSW,238,7.0,7.0,46,0.00,,,0.00,663,Wunderground v.1.15,2013-02-18 20:35:00,
2013-02-18 14:40:00,80.4,57.1,29.77,WSW,242,8.0,14.0,45,0.00,,,0.00,647,Wunderground v.1.15,2013-02-18 20:40:00,
2013-02-18 14:45:00,80.2,57.5,29.77,West,273,7.0,14.0,46,0.00,,,0.00,626,Wunderground v.1.15,2013-02-18 20:45:00,
2013-02-18 14:50:00,80.3,55.8,29.77,WSW,245,7.0,11.0,43,0.00,,,0.00,624,Wunderground v.1.15,2013-02-18 20:50:00,
2013-02-18 15:00:00,80.3,57.0,29.77,West,276,4.0,5.0,45,0.00,,,0.00,598,Wunderground v.1.15,2013-02-18 21:00:00,
2013-02-18 15:05:00,80.9,56.9,29.77,WSW,238,6.0,6.0,44,0.00,,,0.00,591,Wunderground v.1.15,2013-02-18 21:05:00,
2013-02-18 15:10:00,80.5,56.6,29.77,WSW,239,8.0,10.0,44,0.00,,,0.00,578,Wunderground v.1.15,2013-02-18 21:10:00,
2013-02-18 15:15:00,81.1,57.1,29.76,West,267,7.0,10.0,44,0.00,,,0.00,568,Wunderground v.1.15,2013-02-18 21:15:00,
2013-02-18 15:25:00,80.0,56.7,29.76,SW,233,8.0,9.0,45,0.00,,,0.00,531,Wunderground v.1.15,2013-02-18 21:25:00,
2013-02-18 15:30:00,79.7,57.1,29.75,SW,232,5.0,5.0,46,0.00,,,0.00,524,Wunderground v.1.15,2013-02-18 21:30:00,
2013-02-18 15:35:00,80.2,56.3,29.75,SSW,210,3.0,13.0,44,0.00,,,0.00,513,Wunderground v.1.15,2013-02-18 21:35:00,
2013-02-18 15:45:00,80.9,53.6,29.76,SW,222,7.0,10.0,39,0.00,,,0.00,487,Wunderground v.1.15,2013-02-18 21:45:00,
2013-02-18 15:50:00,81.2,53.2,29.76,WSW,248,7.0,7.0,38,0.00,,,0.00,475,Wunderground v.1.15,2013-02-18 21:50:00,
2013-02-18 15:55:00,80.9,53.6,29.76,West,268,6.0,7.0,39,0.00,,,0.00,455,Wunderground v.1.15,2013-02-18 21:55:00,
2013-02-18 16:05:00,81.0,53.7,29.76,SW,234,4.0,5.0,39,0.00,,,0.00,424,Wunderground v.1.15,2013-02-18 22:05:00,
2013-02-18 16:10:00,81.2,53.9,29.76,SSW,195,6.0,7.0,39,0.00,,,0.00,410,Wunderground v.1.15,2013-02-18 22:10:00,
2013-02-18 16:15:00,81.1,53.8,29.76,SW,236,7.0,8.0,39,0.00,,,0.00,394,Wunderground v.1.15,2013-02-18 22:15:00,
2013-02-18 16:25:00,80.7,53.4,29.76,SW,224,9.0,11.0,39,0.00,,,0.00,369,Wunderground v.1.15,2013-02-18 22:25:00,
2013-02-18 16:30:00,81.0,53.7,29.75,SW,227,8.0,8.0,39,0.00,,,0.00,336,Wunderground v.1.15,2013-02-18 22:30:00,
2013-02-18 16:35:00,80.7,53.4,29.75,SW,222,8.0,12.0,39,0.00,,,0.00,327,Wunderground v.1.15,2013-02-18 22:35:00,
2013-02-18 16:40:00,80.8,52.8,29.75,SSW,209,7.0,9.0,38,0.00,,,0.00,309,Wunderground v.1.15,2013-02-18 22:40:00,
2013-02-18 16:45:00,80.1,52.2,29.75,SW,214,9.0,9.0,38,0.00,,,0.00,288,Wunderground v.1.15,2013-02-18 22:45:00,
2013-02-18 16:55:00,80.2,52.3,29.75,SW,230,8.0,10.0,38,0.00,,,0.00,269,Wunderground v.1.15,2013-02-18 22:55:00,
2013-02-18 17:00:00,80.3,51.7,29.75,SSW,192,7.0,7.0,37,0.00,,,0.00,253,Wunderground v.1.15,2013-02-18 23:00:00,
2013-02-18 17:05:00,79.9,51.3,29.75,SSW,200,7.0,7.0,37,0.00,,,0.00,234,Wunderground v.1.15,2013-02-18 23:05:00,
2013-02-18 17:15:00,79.8,51.9,29.76,SW,216,7.0,11.0,38,0.00,,,0.00,193,Wunderground v.1.15,2013-02-18 23:15:00,
2013-02-18 17:20:00,79.4,51.6,29.76,SSW,211,9.0,9.0,38,0.00,,,0.00,163,Wunderground v.1.15,2013-02-18 23:20:00,
2013-02-18 17:25:00,79.2,51.4,29.76,SSW,211,7.0,9.0,38,0.00,,,0.00,114,Wunderground v.1.15,2013-02-18 23:25:00,
2013-02-18 17:30:00,79.0,51.2,29.76,SSW,202,6.0,6.0,38,0.00,,,0.00,62,Wunderground v.1.15,2013-02-18 23:30:00,
2013-02-18 17:40:00,78.7,51.0,29.76,SSW,206,5.0,5.0,38,0.00,,,0.00,39,Wunderground v.1.15,2013-02-18 23:40:00,
2013-02-18 17:45:00,78.4,50.7,29.76,SSW,206,4.0,5.0,38,0.00,,,0.00,33,Wunderground v.1.15,2013-02-18 23:45:00,
2013-02-18 17:55:00,77.9,49.5,29.76,SSW,208,4.0,4.0,37,0.00,,,0.00,23,Wunderground v.1.15,2013-02-18 23:55:00,
2013-02-18 18:00:00,77.8,49.4,29.77,SSW,207,4.0,4.0,37,0.00,,,0.00,12,Wunderground v.1.15,2013-02-19 00:00:00,
2013-02-18 18:05:00,77.7,49.3,29.77,SSW,207,3.0,4.0,37,0.00,,,0.00,9,Wunderground v.1.15,2013-02-19 00:05:00,
2013-02-18 18:10:00,77.5,49.2,29.77,SSW,207,3.0,3.0,37,0.00,,,0.00,7,Wunderground v.1.15,2013-02-19 00:10:00,
2013-02-18 18:15:00,77.2,49.6,29.78,SSW,207,2.0,3.0,38,0.00,,,0.00,7,Wunderground v.1.15,2013-02-19 00:15:00,
2013-02-18 18:20:00,76.7,49.9,29.78,SSW,207,3.0,4.0,39,0.00,,,0.00,5,Wunderground v.1.15,2013-02-19 00:20:00,
2013-02-18 18:25:00,76.2,49.4,29.78,SSW,208,3.0,4.0,39,0.00,,,0.00,0,Wunderground v.1.15,2013-02-19 00:25:00,
2013-02-18 18:30:00,75.7,49.0,29.78,SSW,208,3.0,4.0,39,0.00,,,0.00,0,Wunderground v.1.15,2013-02-19 00:30:00,
2013-02-18 18:35:00,75.1,49.1,29.78,SSW,207,3.0,4.0,40,0.00,,,0.00,0,Wunderground v.1.15,2013-02-19 00:35:00,
2013-02-18 18:40:00,74.7,49.4,29.78,SSW,207,2.0,2.0,41,0.00,,,0.00,0,Wunderground v.1.15,2013-02-19 00:40:00,
2013-02-18 18:45:00,74.4,48.5,29.79,SSW,207,1.0,2.0,40,0.00,,,0.00,0,Wunderground v.1.15,2013-02-19 00:45:00,
2013-02-18 18:50:00,74.0,48.8,29.79,SSW,207,1.0,1.0,41,0.00,,,0.00,0,Wunderground v.1.15,2013-02-19 00:50:00,
2013-02-18 18:55:00,73.5,48.4,29.79,SSW,208,0.0,1.0,41,0.00,,,0.00,0,Wunderground v.1.15,2013-02-19 00:55:00,
2013-02-18 19:00:00,73.1,48.0,29.80,SSW,208,0.0,0.0,41,0.00,,,0.00,0,Wunderground v.1.15,2013-02-19 01:00:00,
2013-02-18 19:05:00,72.5,48.7,29.80,SSW,207,0.0,0.0,43,0.00,,,0.00,0,Wunderground v.1.15,2013-02-19 01:05:00,
2013-02-18 19:15:00,71.4,48.9,29.82,SSW,207,0.0,0.0,45,0.00,,,0.00,0,Wunderground v.1.15,2013-02-19 01:15:00,
2013-02-18 19:20:00,70.6,49.4,29.82,SSW,208,1.0,3.0,47,0.00,,,0.00,0,Wunderground v.1.15,2013-02-19 01:20:00,
2013-02-18 19:25:00,69.8,49.2,29.82,SSW,213,1.0,3.0,48,0.00,,,0.00,0,Wunderground v.1.15,2013-02-19 01:25:00,
2013-02-18 19:35:00,68.9,48.4,29.83,SSW,213,1.0,1.0,48,0.00,,,0.00,0,Wunderground v.1.15,2013-02-19 01:35:00,
2013-02-18 19:40:00,68.5,48.6,29.83,SSW,213,1.0,1.0,49,0.00,,,0.00,0,Wunderground v.1.15,2013-02-19 01:40:00,
2013-02-18 19:45:00,67.9,47.5,29.84,SSW,213,1.0,2.0,48,0.00,,,0.00,0,Wunderground v.1.15,2013-02-19 01:45:00,
2013-02-18 19:50:00,67.5,46.6,29.84,SSW,213,1.0,1.0,47,0.00,,,0.00,0,Wunderground v.1.15,2013-02-19 01:50:00,
2013-02-18 19:55:00,67.2,46.3,29.84,SSW,213,1.0,1.0,47,0.00,,,0.00,0,Wunderground v.1.15,2013-02-19 01:55:00,
2013-02-18 20:00:00,66.9,44.9,29.85,SSW,213,0.0,0.0,45,0.00,,,0.00,0,Wunderground v.1.15,2013-02-19 02:00:00,
2013-02-18 20:05:00,66.6,45.7,29.85,SSW,213,0.0,0.0,47,0.00,,,0.00,0,Wunderground v.1.15,2013-02-19 02:05:00,
2013-02-18 20:10:00,66.3,44.9,29.85,SSW,213,0.0,0.0,46,0.00,,,0.00,0,Wunderground v.1.15,2013-02-19 02:10:00,
2013-02-18 20:15:00,66.0,45.2,29.86,SSW,213,0.0,0.0,47,0.00,,,0.00,0,Wunderground v.1.15,2013-02-19 02:15:00,
2013-02-18 20:25:00,65.1,44.4,29.86,SW,215,1.0,5.0,47,0.00,,,0.00,0,Wunderground v.1.15,2013-02-19 02:25:00,
2013-02-18 20:30:00,64.6,41.6,29.87,SW,217,2.0,2.0,43,0.00,,,0.00,0,Wunderground v.1.15,2013-02-19 02:30:00,
2013-02-18 20:40:00,64.1,37.3,29.87,SW,218,1.0,1.0,37,0.00,,,0.00,0,Wunderground v.1.15,2013-02-19 02:40:00,
2013-02-18 20:45:00,63.9,37.8,29.89,SW,218,0.0,1.0,38,0.00,,,0.00,0,Wunderground v.1.15,2013-02-19 02:45:00,
2013-02-18 20:50:00,63.8,37.0,29.89,SW,218,0.0,0.0,37,0.00,,,0.00,0,Wunderground v.1.15,2013-02-19 02:50:00,
2013-02-18 20:55:00,63.6,36.8,29.89,SW,218,0.0,0.0,37,0.00,,,0.00,0,Wunderground v.1.15,2013-02-19 02:55:00,
2013-02-18 21:00:00,63.5,38.1,29.90,SW,218,0.0,2.0,39,0.00,,,0.00,0,Wunderground v.1.15,2013-02-19 03:00:00,
2013-02-18 21:05:00,63.2,36.5,29.90,SW,218,1.0,2.0,37,0.00,,,0.00,0,Wunderground v.1.15,2013-02-19 03:05:00,
2013-02-18 21:10:00,62.9,36.9,29.90,SW,218,1.0,1.0,38,0.00,,,0.00,0,Wunderground v.1.15,2013-02-19 03:10:00,
2013-02-18 21:15:00,62.7,36.7,29.91,SW,218,0.0,1.0,38,0.00,,,0.00,0,Wunderground v.1.15,2013-02-19 03:15:00,
2013-02-18 21:20:00,62.3,36.4,29.91,SW,218,0.0,1.0,38,0.00,,,0.00,0,Wunderground v.1.15,2013-02-19 03:20:00,
2013-02-18 21:30:00,61.6,35.1,29.92,SW,218,1.0,1.0,37,0.00,,,0.00,0,Wunderground v.1.15,2013-02-19 03:30:00,
2013-02-18 21:35:00,61.2,35.4,29.92,SW,219,1.0,1.0,38,0.00,,,0.00,0,Wunderground v.1.15,2013-02-19 03:35:00,
2013-02-18 21:40:00,60.8,33.7,29.92,SW,222,2.0,2.0,36,0.00,,,0.00,0,Wunderground v.1.15,2013-02-19 03:40:00,
2013-02-18 21:45:00,60.9,32.3,29.93,North,11,3.0,5.0,34,0.00,,,0.00,0,Wunderground v.1.15,2013-02-19 03:45:00,
2013-02-18 21:55:00,62.1,31.9,29.93,NNE,13,4.0,6.0,32,0.00,,,0.00,0,Wunderground v.1.15,2013-02-19 03:55:00,
2013-02-18 22:05:00,63.0,32.7,29.94,NNE,17,3.0,3.0,32,0.00,,,0.00,0,Wunderground v.1.15,2013-02-19 04:05:00,
2013-02-18 22:15:00,63.5,33.1,29.94,NNE,28,4.0,5.0,32,0.00,,,0.00,0,Wunderground v.1.15,2013-02-19 04:15:00,
2013-02-18 22:20:00,63.7,34.0,29.94,NE,49,5.0,5.0,33,0.00,,,0.00,0,Wunderground v.1.15,2013-02-19 04:20:00,
2013-02-18 22:25:00,63.8,34.1,29.94,NNE,29,5.0,6.0,33,0.00,,,0.00,0,Wunderground v.1.15,2013-02-19 04:25:00,
2013-02-18 22:35:00,64.1,35.1,29.94,NE,36,7.0,7.0,34,0.00,,,0.00,0,Wunderground v.1.15,2013-02-19 04:35:00,
2013-02-18 22:40:00,64.0,35.0,29.94,NE,41,6.0,6.0,34,0.00,,,0.00,0,Wunderground v.1.15,2013-02-19 04:40:00,
2013-02-18 22:45:00,63.8,35.6,29.95,NE,41,5.0,6.0,35,0.00,,,0.00,0,Wunderground v.1.15,2013-02-19 04:45:00,
2013-02-18 22:50:00,63.6,35.4,29.95,NNE,31,7.0,7.0,35,0.00,,,0.00,0,Wunderground v.1.15,2013-02-19 04:50:00,
2013-02-18 23:00:00,63.7,34.8,29.95,NE,35,9.0,10.0,34,0.00,,,0.00,0,Wunderground v.1.15,2013-02-19 05:00:00,
2013-02-18 23:05:00,63.5,35.3,29.95,NNE,30,8.0,10.0,35,0.00,,,0.00,0,Wunderground v.1.15,2013-02-19 05:05:00,
2013-02-18 23:15:00,63.2,35.1,29.95,NE,38,7.0,12.0,35,0.00,,,0.00,0,Wunderground v.1.15,2013-02-19 05:15:00,
2013-02-18 23:20:00,62.8,35.4,29.95,NE,42,5.0,5.0,36,0.00,,,0.00,0,Wunderground v.1.15,2013-02-19 05:20:00,
2013-02-18 23:30:00,62.1,34.8,29.96,NNE,24,5.0,5.0,36,0.00,,,0.00,0,Wunderground v.1.15,2013-02-19 05:30:00,
2013-02-18 23:35:00,61.7,35.1,29.96,NE,47,5.0,17.0,37,0.00,,,0.00,0,Wunderground v.1.15,2013-02-19 05:35:00,
2013-02-18 23:40:00,61.6,35.1,29.96,NNE,31,7.0,7.0,37,0.00,,,0.00,0,Wunderground v.1.15,2013-02-19 05:40:00,
2013-02-18 23:50:00,61.2,35.4,29.96,NNE,33,6.0,6.0,38,0.00,,,0.00,0,Wunderground v.1.15,2013-02-19 05:50:00,
2013-02-18 23:55:00,61.0,35.2,29.96,NE,34,6.0,9.0,38,0.00,,,0.00,0,Wunderground v.1.15,2013-02-19 05:55:00,